| time (UTC) | temp F | wind direction | speed MPH | gust MPH | rain 1hr in | rain 24hr in | rain mn in | humidity % | barometer mb |
| 20260905174523 | 82 | 118 | 0.0 | 2.0 | 0.00 | 0.01 | 0.01 | 78 | 1015.8 |
| 20260905173029 | 82 | 97 | 0.0 | 3.0 | 0.00 | 0.01 | 0.01 | 78 | 1015.8 |
| 20260905171516 | 82 | 26 | 1.0 | 3.0 | 0.00 | 0.01 | 0.01 | 80 | 1015.8 |
| 20260905170035 | 82 | 92 | 0.0 | 2.0 | 0.00 | 0.01 | 0.01 | 80 | 1016.0 |
| 20260905164533 | 82 | 188 | 0.0 | 2.0 | 0.00 | 0.01 | 0.01 | 80 | 1016.1 |
| 20260905163031 | 81 | 225 | 0.0 | 3.0 | 0.00 | 0.01 | 0.01 | 81 | 1016.1 |
| 20260905161525 | 80 | 211 | 0.0 | 3.0 | 0.00 | 0.01 | 0.01 | 82 | 1016.0 |
| 20260905160023 | 80 | 94 | 1.0 | 2.0 | 0.00 | 0.01 | 0.01 | 83 | 1016.0 |
| 20260905154520 | 79 | 88 | 1.0 | 3.0 | 0.00 | 0.01 | 0.01 | 85 | 1015.9 |
| 20260905153037 | 78 | 123 | 0.0 | 3.0 | 0.00 | 0.01 | 0.01 | 86 | 1015.9 |
| 20260905151532 | 78 | 126 | 0.0 | 5.0 | 0.00 | 0.01 | 0.01 | 87 | 1015.6 |
| 20260905150032 | 77 | 101 | 0.0 | 3.0 | 0.00 | 0.01 | 0.01 | 89 | 1015.5 |
| 20260905144528 | 76 | 54 | 0.0 | 4.0 | 0.00 | 0.01 | 0.01 | 91 | 1015.3 |
| 20260905143033 | 75 | 153 | 0.0 | 3.0 | 0.00 | 0.01 | 0.01 | 93 | 1015.3 |
| 20260905141520 | 74 | 215 | 0.0 | 2.0 | 0.00 | 0.01 | 0.01 | 93 | 1015.3 |
| 20260905140035 | 74 | 148 | 0.0 | 1.0 | 0.00 | 0.01 | 0.01 | 94 | 1015.1 |
| 20260905134538 | 74 | 148 | 0.0 | 2.0 | 0.00 | 0.01 | 0.01 | 94 | 1015.2 |
| 20260905133035 | 74 | 160 | 0.0 | 2.0 | 0.00 | 0.01 | 0.01 | 94 | 1015.4 |
| 20260905131531 | 74 | 163 | 0.0 | 0.0 | 0.00 | 0.01 | 0.01 | 94 | 1015.5 |
| 20260905130026 | 74 | 184 | 0.0 | 1.0 | 0.00 | 0.01 | 0.01 | 94 | 1014.9 |
| 20260905124535 | 74 | 219 | 0.0 | 2.0 | 0.00 | 0.01 | 0.01 | 94 | 1014.6 |
| 20260905123059 | 74 | 254 | 0.0 | 1.0 | 0.00 | 0.01 | 0.01 | 94 | 1014.4 |
| 20260905121535 | 74 | 254 | 0.0 | 0.0 | 0.00 | 0.01 | 0.01 | 94 | 1014.5 |
| 20260905120034 | 74 | 254 | 0.0 | 0.0 | 0.00 | 0.01 | 0.01 | 94 | 1014.2 |
| 20260905114530 | 74 | 254 | 0.0 | 0.0 | 0.00 | 0.01 | 0.01 | 94 | 1014.0 |
| 20260905113033 | 74 | 254 | 0.0 | 0.0 | 0.00 | 0.01 | 0.01 | 94 | 1013.8 |
| 20260905111527 | 75 | 254 | 0.0 | 1.0 | 0.00 | 0.01 | 0.01 | 94 | 1013.6 |
| 20260905110023 | 75 | 254 | 0.0 | 1.0 | 0.00 | 0.01 | 0.01 | 94 | 1013.4 |
| 20260905104517 | 75 | 254 | 0.0 | 0.0 | 0.00 | 0.01 | 0.01 | 94 | 1013.4 |
| 20260905103018 | 75 | 254 | 0.0 | 0.0 | 0.00 | 0.01 | 0.01 | 94 | 1013.4 |
| 20260905101511 | 75 | 254 | 0.0 | 0.0 | 0.00 | 0.01 | 0.01 | 94 | 1013.4 |
| 20260905100041 | 75 | 254 | 0.0 | 0.0 | 0.00 | 0.01 | 0.01 | 94 | 1013.4 |
| 20260905094529 | 75 | 254 | 0.0 | 0.0 | 0.00 | 0.01 | 0.01 | 94 | 1013.5 |
| 20260905093034 | 75 | 254 | 0.0 | 0.0 | 0.01 | 0.01 | 0.01 | 93 | 1013.3 |
| 20260905091520 | 75 | 254 | 0.0 | 0.0 | 0.01 | 0.01 | 0.01 | 93 | 1013.3 |
| 20260905090018 | 75 | 254 | 0.0 | 0.0 | 0.01 | 0.01 | 0.01 | 93 | 1013.3 |
| 20260905084534 | 75 | 254 | 0.0 | 0.0 | 0.01 | 0.01 | 0.01 | 93 | 1013.2 |
| 20260905083032 | 75 | 254 | 0.0 | 0.0 | 0.00 | 0.00 | 0.00 | 93 | 1013.4 |
| 20260905081536 | 75 | 254 | 0.0 | 0.0 | 0.00 | 0.00 | 0.00 | 93 | 1013.4 |
| 20260905080043 | 75 | 254 | 0.0 | 0.0 | 0.00 | 0.00 | 0.00 | 92 | 1013.2 |
| 20260905074524 | 76 | 254 | 0.0 | 0.0 | 0.00 | 0.00 | 0.00 | 92 | 1013.2 |
| 20260905073023 | 76 | 254 | 0.0 | 0.0 | 0.00 | 0.00 | 0.00 | 92 | 1013.4 |
| 20260905071518 | 76 | 254 | 0.0 | 0.0 | 0.00 | 0.00 | 0.00 | 92 | 1013.4 |
| 20260905070039 | 76 | 254 | 0.0 | 0.0 | 0.00 | 0.00 | 0.00 | 91 | 1013.7 |
| 20260905064535 | 77 | 254 | 0.0 | 0.0 | 0.00 | 0.00 | 0.00 | 91 | 1013.7 |
| 20260905063030 | 77 | 254 | 0.0 | 0.0 | 0.00 | 0.00 | 0.00 | 91 | 1013.7 |
| 20260905061526 | 77 | 254 | 0.0 | 0.0 | 0.00 | 0.00 | 0.00 | 90 | 1013.9 |
| 20260905060040 | 78 | 254 | 0.0 | 0.0 | 0.00 | 0.00 | 0.00 | 90 | 1013.9 |
| 20260905054517 | 78 | 254 | 0.0 | 0.0 | 0.00 | 0.00 | 0.00 | 89 | 1013.9 |
| 20260905053036 | 79 | 254 | 0.0 | 0.0 | 0.00 | 0.00 | 0.00 | 88 | 1013.8 |
| 20260905051548 | 80 | 254 | 0.0 | 0.0 | 0.00 | 0.00 | 0.00 | 87 | 1013.7 |
| 20260905050032 | 81 | 254 | 0.0 | 0.0 | 0.00 | 0.00 | 0.00 | 86 | 1013.7 |
| 20260905044537 | 82 | 254 | 0.0 | 0.0 | 0.00 | 0.00 | 0.00 | 84 | 1013.6 |
| 20260905043028 | 83 | 254 | 0.0 | 1.0 | 0.00 | 0.00 | 0.00 | 82 | 1013.5 |
| 20260905041536 | 83 | 248 | 0.0 | 1.0 | 0.00 | 0.00 | 0.00 | 81 | 1013.5 |
| 20260905040041 | 83 | 231 | 0.0 | 0.0 | 0.00 | 0.00 | 0.00 | 81 | 1013.6 |
| 20260905034539 | 83 | 231 | 0.0 | 1.0 | 0.00 | 0.00 | 0.00 | 81 | 1013.6 |
| 20260905033031 | 81 | 252 | 0.0 | 3.0 | 0.00 | 0.00 | 0.00 | 86 | 1014.2 |
| 20260905031538 | 79 | 352 | 0.0 | 1.0 | 0.00 | 0.00 | 0.00 | 89 | 1014.3 |
| 20260905030026 | 79 | 277 | 0.0 | 0.0 | 0.00 | 0.00 | 0.00 | 90 | 1014.3 |
| 20260905024534 | 79 | 277 | 0.0 | 0.0 | 0.00 | 0.00 | 0.00 | 89 | 1014.3 |
| 20260905023035 | 79 | 277 | 0.0 | 0.0 | 0.00 | 0.00 | 0.00 | 89 | 1014.2 |
| 20260905021529 | 80 | 277 | 0.0 | 0.0 | 0.00 | 0.00 | 0.00 | 88 | 1014.1 |
| 20260905020010 | 80 | 277 | 0.0 | 0.0 | 0.00 | 0.00 | 0.00 | 87 | 1013.9 |
| 20260905014509 | 81 | 277 | 0.0 | 0.0 | 0.00 | 0.00 | 0.00 | 86 | 1013.8 |
| 20260905013006 | 81 | 277 | 0.0 | 0.0 | 0.00 | 0.00 | 0.00 | 85 | 1013.6 |
| 20260905011504 | 82 | 277 | 0.0 | 0.0 | 0.00 | 0.00 | 0.00 | 83 | 1013.5 |
| 20260905010020 | 84 | 277 | 0.0 | 0.0 | 0.00 | 0.00 | 0.00 | 81 | 1013.2 |
| 20260905004516 | 86 | 277 | 0.0 | 0.0 | 0.00 | 0.00 | 0.00 | 77 | 1013.1 |
| 20260905003033 | 87 | 277 | 0.0 | 2.0 | 0.00 | 0.00 | 0.00 | 72 | 1013.2 |
| 20260905001508 | 88 | 229 | 0.0 | 1.0 | 0.00 | 0.00 | 0.00 | 70 | 1013.0 |
| 20260905000007 | 89 | 225 | 0.0 | 4.0 | 0.00 | 0.00 | 0.00 | 67 | 1012.9 |
| 20260904234502 | 89 | 224 | 0.0 | 7.0 | 0.00 | 0.00 | 0.00 | 67 | 1013.0 |
| 20260904233043 | 90 | 249 | 0.0 | 3.0 | 0.00 | 0.00 | 0.00 | 67 | 1013.1 |
| 20260904231525 | 91 | 182 | 1.0 | 4.0 | 0.00 | 0.00 | 0.00 | 64 | 1013.3 |
| 20260904230034 | 91 | 246 | 1.0 | 5.0 | 0.00 | 0.00 | 0.00 | 64 | 1013.3 |
| 20260904224512 | 92 | 296 | 0.0 | 5.0 | 0.00 | 0.00 | 0.00 | 62 | 1013.3 |
| 20260904223009 | 93 | 220 | 1.0 | 6.0 | 0.00 | 0.00 | 0.00 | 61 | 1013.4 |
| 20260904221503 | 93 | 243 | 2.0 | 5.0 | 0.00 | 0.00 | 0.00 | 61 | 1013.3 |
| 20260904220029 | 93 | 250 | 1.0 | 4.0 | 0.00 | 0.00 | 0.00 | 60 | 1013.4 |
| 20260904214527 | 93 | 263 | 0.0 | 4.0 | 0.00 | 0.00 | 0.00 | 59 | 1013.2 |
| 20260904213021 | 93 | 218 | 1.0 | 5.0 | 0.00 | 0.00 | 0.00 | 58 | 1013.1 |
| 20260904211517 | 94 | 267 | 1.0 | 8.0 | 0.00 | 0.00 | 0.00 | 57 | 1013.1 |
| 20260904210009 | 94 | 187 | 1.0 | 5.0 | 0.00 | 0.00 | 0.00 | 57 | 1013.1 |
| 20260904204533 | 93 | 269 | 2.0 | 5.0 | 0.00 | 0.00 | 0.00 | 59 | 1013.4 |
| 20260904203030 | 93 | 210 | 1.0 | 4.0 | 0.00 | 0.00 | 0.00 | 59 | 1013.7 |
| 20260904201531 | 93 | 209 | 1.0 | 5.0 | 0.00 | 0.00 | 0.00 | 59 | 1013.9 |
| 20260904200028 | 92 | 179 | 1.0 | 6.0 | 0.00 | 0.00 | 0.00 | 59 | 1014.0 |
| 20260904194521 | 91 | 230 | 1.0 | 3.0 | 0.00 | 0.00 | 0.00 | 60 | 1014.3 |
| 20260904193019 | 91 | 213 | 0.0 | 6.0 | 0.00 | 0.00 | 0.00 | 61 | 1014.6 |
| 20260904191536 | 89 | 187 | 0.0 | 5.0 | 0.00 | 0.00 | 0.00 | 64 | 1014.6 |
| 20260904190031 | 88 | 204 | 0.0 | 4.0 | 0.00 | 0.00 | 0.00 | 68 | 1014.7 |
| 20260904184526 | 87 | 59 | 0.0 | 7.0 | 0.00 | 0.00 | 0.00 | 65 | 1015.0 |
| 20260904183027 | 86 | 102 | 0.0 | 8.0 | 0.00 | 0.00 | 0.00 | 65 | 1015.1 |
| 20260904181520 | 85 | 177 | 1.0 | 3.0 | 0.00 | 0.00 | 0.00 | 68 | 1015.3 |
| 20260904180016 | 83 | 47 | 0.0 | 4.0 | 0.00 | 0.00 | 0.00 | 70 | 1015.9 |